Location: Gebenbach
(49.5378°N, 11.8735°E)
Time: 03:39:17
(UTC+00:00)

USA 281 - Pass Details

Date: 29 October 2020
Orbit: 1079 x 1080 km, 106.0° (Epoch: 23 November)

Event Time Altitude Azimuth Distance (km) Brightness Sun altitude
Rises 16:44:36 0° 160° (SSE) 3,863 6.0 -8.6°
Reaches altitude 10° 16:47:07 10° 163° (SSE) 2,911 5.4 -9.0°
Maximum altitude 16:53:38 69° 247° (WSW) 1,150 3.6 -10.0°
Drops below altitude 10° 17:00:12 10° 330° (NNW) 2,929 5.8 -11.1°
Sets 17:02:45 0° 333° (NNW) 3,889 6.4 -11.5°
